C/2023 V1 ( Lemmon )

Japanese version
Home page
Updated on November 27, 2024

---------------------------------------------------------------------

* Profile

Discovery Date November 2, 2023
Magnitude 20.5 mag
Discoverer J. B. Fazekas (Mt. Lemmon)

* Pictures

* Orbital Elements

Epoch 2024 Oct. 17.0 TT = JDT 2460600.5
T 2025 July 13.05116 TT                                 Rudenko
q   5.0925905            (2000.0)            P               Q
z  -0.0000173      Peri.  103.31233     -0.16984724     -0.95225792
 +/-0.0000006      Node    15.03247     -0.61287325     -0.09951842
e   1.0000882      Incl.  102.01299     +0.77171128     -0.28861902
>From 83 observations 2022 Sept. 23-2024 Aug. 11, mean residual 0".3.

* Magnitudes Graph

        m1 = 0.0 + 5 log d + 20.0 log r

---------------------------------------------------------------------

The orbital elements are published on M.P.E.C. 2024-Q20.
The magnitudes graphs are made with Comet for Windows.

---------------------------------------------------------------------

Copyright(C) Seiichi Yoshida (comet@aerith.net). All rights reserved.